Terminal Aerodrome Forecast
Issued by NWS Wilmington, OH

Current Version | Previous Version | Graphics & Text | Print | Product List | Glossary On
Versions: 1 2 3 4 5 6 7 8 9 10 11 12 13 14 15 16 17 18 19 20 21 22 23 24 25 26 27 28 29 30 31 32 33
000
FTUS41 KILN 180900 AAA
TAFCVG
TAF AMD
KCVG 180918Z 1809/1912 04004KT 4SM BR VCSH SCT005 BKN030
     FM181100 04004KT 2SM BR VCSH OVC015
     FM181300 02004KT 5SM HZ VCSH OVC015
     FM181700 35005KT P6SM VCSH OVC020
     FM181900 31004KT P6SM VCSH BKN040
     FM190100 VRB03KT P6SM BKN100
     FM190900 19003KT 5SM BR BKN250=

USA.gov is the U.S. government's official web portal to all federal, state and local government web resources and services.